User: anonymous   Login
Location: Unspecified
(0.0000°N, 0.0000°E)
Time: 20:54:44
(UTC+00:00)
Language:

Altair - Orbit

View from above orbital plane
View from above orbital plane
View from above satellite
View from above satellite

Ground track
Ground track

The orbit data is extracted from the following two-line orbital elements,

1    50U 60009B   20195.84402791 -.00000100 +00000-0 -12322-3 0  9998
2    50 047.2326 039.3641 0113896 044.3510 316.6336 12.20112734673447
Epoch (UTC): 13 July 2020 20:15:24
Eccentricity: 0.0113896
inclination: 47.2326°
perigee height: 1501 km
apogee height: 1683 km
right ascension of ascending node: 39.3641°
argument of perigee: 44.3510°
revolutions per day: 12.20112734
mean anomaly at epoch: 316.6336°
orbit number at epoch: 67344

The dashed part of the orbit path shows where the satellite is in the earth's shadow,  

DLR